Location: Deneb Observatory
(47.2267°N, 100.4953°W)
Time: 20:13:12
(UTC-05:00)

Amateur Radio Satellites - All Passes

Search period start: 22 May 2015 19:43
Search period end: 23 May 2015 19:43
Location: Deneb Observatory, 47.2267°N, 100.4953°W

Satellite Date Start Highest point End Downlink Frequencies (MHz)
Time Altitude Azimuth
DOVE 4 22 May 19:48:40 19:50:50 13° 56° (NE) 19:53:15 437.250
GOMX 1 22 May 19:59:53 20:03:44 22° 61° (ENE) 20:07:51 467.674
O/OREOS (USA 219) 22 May 20:00:02 20:01:49 12° 319° (NW) 20:03:26 437.305
CUBESAT XI-V 22 May 20:00:08 20:04:48 61° 101° (E) 20:09:28 437.345
BEESAT 2 22 May 20:14:20 20:18:05 35° 119° (ESE) 20:21:54 435.950
MOZHAYETS 4 22 May 20:14:29 20:16:31 13° 301° (WNW) 20:18:21
PRISM 22 May 20:17:31 20:21:27 41° 99° (E) 20:25:23 437.425
AAUSAT CUBESAT 2 22 May 20:21:23 20:22:15 11° 59° (ENE) 20:23:19 437.432
CUTE-I 22 May 20:35:37 20:39:09 17° 272° (W) 20:42:29 437.470
YUBILEINY 22 May 20:36:56 20:45:37 74° 265° (W) 20:54:15 435.215
CANX-2 22 May 20:41:37 20:45:20 30° 68° (ENE) 20:49:06 2200.000
Cosmos 2491 22 May 20:41:44 20:50:15 59° 92° (E) 20:58:54 435.465 / 435.565
CUTE 1.7 + AOD 2 22 May 20:45:56 20:49:39 30° 68° (ENE) 20:53:25 437.475
M-CUBED/EXP-1 PRIME 22 May 20:52:27 20:55:34 34° 103° (ESE) 20:58:37 437.505
Cubesat XI-IV 22 May 20:56:47 20:58:38 11° 276° (W) 21:00:09 437.490
STRAND 1 22 May 20:58:32 21:03:43 86° 101° (E) 21:08:53 437.568
AIST 1 22 May 21:01:19 21:02:30 11° 83° (E) 21:03:56
AUBIESAT-1 22 May 21:05:14 21:08:27 43° 104° (ESE) 21:11:37 437.475
Cosmos 2504 22 May 21:05:53 21:11:09 21° 58° (ENE) 21:16:32 435.465 / 435.565
BRITE-PL 22 May 21:09:07 21:14:05 72° 258° (WSW) 21:19:31 437.365/2234.400
BEESAT 3 22 May 21:09:44 21:13:48 59° 311° (NW) 21:17:53 437.485
HO-68 22 May 21:10:43 21:17:54 77° 70° (ENE) 21:25:07 435.675
AIST 2 22 May 21:10:49 21:14:47 40° 120° (ESE) 21:18:51 435.215
FUNcube-1 22 May 21:11:50 21:13:26 12° 58° (ENE) 21:15:14 145.935
SEEDS 22 May 21:15:47 21:19:52 49° 72° (ENE) 21:23:59 437.485
DELFI C3 22 May 21:19:37 21:21:48 15° 62° (ENE) 21:24:07 145.870
DOVE 4 22 May 21:22:39 21:27:42 73° 74° (ENE) 21:33:00 437.250
CUBEBUG 2 22 May 21:24:57 21:28:42 24° 64° (ENE) 21:32:32 437.445
GOMX 1 22 May 21:36:23 21:41:23 62° 260° (W) 21:46:44 467.674
CINEMA 3 22 May 21:36:26 21:41:15 53° 71° (ENE) 21:46:11 145.822/145.860
COMPASS 1 22 May 21:36:45 21:40:55 67° 75° (ENE) 21:45:06 437.405
CUBESAT XI-V 22 May 21:38:34 21:41:51 19° 298° (WNW) 21:45:01 437.345
RS-15 22 May 21:41:23 21:51:09 31° 254° (WSW) 22:00:50 29.354- 29.394
ZACube-1 22 May 21:47:49 21:51:32 25° 65° (ENE) 21:55:19 437.345
BEESAT 2 22 May 21:52:26 21:56:12 32° 318° (NW) 21:59:58 435.950
AAUSAT CUBESAT 2 22 May 21:53:03 21:57:15 86° 76° (ENE) 22:01:27 437.432
PRISM 22 May 21:53:29 21:56:41 21° 296° (WNW) 21:59:48 437.425
UKube-1 22 May 22:00:53 22:03:41 17° 61° (ENE) 22:06:35 .
DX 1 22 May 22:02:12 22:05:14 19° 62° (ENE) 22:08:22 434.975-435.025
Oscar 11 22 May 22:10:49 22:15:07 65° 73° (ENE) 22:19:26 145.826/435.025
CANX-2 22 May 22:17:28 22:21:15 29° 265° (W) 22:25:00 2200.000
HUMSAT D 22 May 22:21:24 22:24:54 25° 66° (ENE) 22:28:28 437.325/437.525
UWE-3 22 May 22:21:27 22:26:04 62° 73° (ENE) 22:30:44 435.000/436.395/437.385
CUTE 1.7 + AOD 2 22 May 22:21:48 22:25:34 29° 266° (W) 22:29:18 437.475
AISAT 22 May 22:27:28 22:30:29 19° 62° (ENE) 22:33:37 437.250
M-CUBED/EXP-1 PRIME 22 May 22:27:56 22:30:15 17° 302° (WNW) 22:32:26 437.505
AIST 1 22 May 22:35:20 22:39:35 74° 280° (W) 22:43:53
YUBILEINY 22 May 22:36:00 22:41:03 16° 285° (WNW) 22:45:35 435.215
STRAND 1 22 May 22:39:10 22:42:19 16° 302° (WNW) 22:45:17 437.568
Cosmos 2491 22 May 22:39:38 22:47:40 37° 295° (WNW) 22:55:38 435.465 / 435.565
AUBIESAT-1 22 May 22:41:01 22:42:59 14° 303° (WNW) 22:44:48 437.475
FUNcube-1 22 May 22:44:29 22:49:05 82° 75° (ENE) 22:53:42 145.935
50 SAT 22 May 22:48:58 22:52:19 26° 67° (ENE) 22:55:43 437.505
AIST 2 22 May 22:49:38 22:53:29 31° 319° (NW) 22:57:19 435.215
BEESAT 3 22 May 22:50:27 22:52:39 14° 332° (NNW) 22:54:46 437.485
DELFI C3 22 May 22:52:29 22:56:30 61° 259° (W) 23:00:30 145.870
SEEDS 22 May 22:53:04 22:56:00 17° 270° (W) 22:58:48 437.485
Cosmos 2504 22 May 22:58:20 23:05:41 83° 263° (W) 23:12:51 435.465 / 435.565
CUBEBUG 2 22 May 23:00:30 23:05:08 48° 262° (W) 23:09:46 437.445
HO-68 22 May 23:00:48 23:06:27 23° 271° (W) 23:11:54 435.675
DOVE 4 22 May 23:02:47 23:06:07 17° 274° (W) 23:09:21 437.250
UNISAT 6 22 May 23:02:48 23:04:00 11° 85° (E) 23:05:25 437.425
GONETS M04 22 May 23:10:27 23:13:05 12° 43° (NE) 23:16:14
CINEMA 3 22 May 23:14:53 23:18:47 22° 270° (W) 23:22:38 145.822/145.860
COMPASS 1 22 May 23:15:06 23:17:08 13° 273° (W) 23:18:58 437.405
ESTCUBE 1 22 May 23:17:05 23:21:00 31° 67° (ENE) 23:24:59 437.505/2401.250
CUSAT 1 22 May 23:17:39 23:21:35 15° 45° (NE) 23:25:36 437.405
ZACube-1 22 May 23:23:19 23:27:41 42° 263° (W) 23:32:05 437.345
VELOX 1 22 May 23:32:20 23:36:44 71° 73° (ENE) 23:41:11 145.980
UKube-1 22 May 23:35:09 23:39:25 58° 259° (W) 23:43:44 .
DX 1 22 May 23:36:52 23:41:07 53° 259° (W) 23:45:26 434.975-435.025
ANTELSAT 22 May 23:43:56 23:47:48 29° 94° (E) 23:51:38 437.575/2403.000
CUBEBUG 1 22 May 23:44:29 23:48:40 48° 71° (ENE) 23:52:55 437.445
Oscar 11 22 May 23:49:22 23:51:48 14° 272° (W) 23:54:03 145.826/435.025
TISAT 1 22 May 23:49:54 23:52:02 14° 60° (ENE) 23:54:20 437.305
DANDE 22 May 23:55:39 00:01:43 22° 52° (NE) 00:07:29 436.750
HUMSAT D 22 May 23:56:26 00:00:30 37° 263° (W) 00:04:32 437.325/437.525
UWE-3 22 May 23:59:56 00:03:04 17° 272° (W) 00:06:03 435.000/436.395/437.385
POLYITAN 1 22 May 23:59:57 00:03:09 20° 91° (E) 00:06:26 437.675
QB50P1 23 May 00:00:38 00:03:50 20° 91° (E) 00:07:06 145.935-145.965
AISAT 23 May 00:02:18 00:06:41 57° 260° (W) 00:11:06 437.250
BUGSAT 1 23 May 00:06:51 00:09:33 17° 89° (E) 00:12:22 437.445
TIGRISAT 23 May 00:18:42 00:23:09 63° 101° (E) 00:27:27 435.000
50 SAT 23 May 00:23:23 00:26:58 30° 265° (W) 00:30:31 437.505
FUNcube-1 23 May 00:24:01 00:26:05 12° 274° (W) 00:27:54 145.935
NANOSAT C BR1 23 May 00:33:09 00:37:16 42° 98° (E) 00:41:21 145.865
UNISAT 6 23 May 00:37:02 00:41:32 83° 283° (WNW) 00:45:53 437.425
QB50P2 23 May 00:37:36 00:41:47 49° 99° (E) 00:45:57 145.880/145.840
SPROUT 23 May 00:41:28 00:45:41 55° 72° (ENE) 00:49:57 437.525
POPSAT HIP 1 23 May 00:51:02 00:55:20 66° 101° (ESE) 00:59:35 437.405
ESTCUBE 1 23 May 00:53:51 00:57:51 31° 265° (W) 01:01:51 437.505/2401.250
Cosmos 2504 23 May 00:53:51 00:57:57 15° 283° (WNW) 01:01:38 435.465 / 435.565
DUCHIFAT 1 23 May 00:56:53 01:01:11 75° 101° (ESE) 01:05:27 145.980
CUSAT 1 23 May 00:58:45 01:06:34 56° 71° (ENE) 01:12:59 437.405
GONETS M04 23 May 01:04:30 01:12:57 48° 70° (ENE) 01:21:22
VELOX 1 23 May 01:11:33 01:13:53 14° 273° (W) 01:16:00 145.980
ANTELSAT 23 May 01:20:37 01:24:37 32° 293° (WNW) 01:28:28 437.575/2403.000
CUBEBUG 1 23 May 01:22:12 01:25:21 19° 270° (W) 01:28:25 437.445
TISAT 1 23 May 01:23:04 01:27:18 73° 257° (WSW) 01:31:35 437.305
POLYITAN 1 23 May 01:35:11 01:39:18 43° 290° (WNW) 01:43:21 437.675
QB50P1 23 May 01:35:49 01:39:55 43° 290° (WNW) 01:43:58 145.935-145.965
DANDE 23 May 01:38:08 01:46:38 80° 77° (ENE) 01:53:41 436.750
ITUPSAT 1 23 May 01:38:48 01:42:57 31° 66° (ENE) 01:47:11 437.325
BUGSAT 1 23 May 01:41:12 01:45:24 54° 288° (WNW) 01:49:34 437.445
ISS 23 May 01:42:58 01:44:59 16° 137° (SE) 01:47:05 145.825
Cosmos 2499 23 May 01:48:47 01:52:48 16° 54° (NE) 01:57:05 435.465 / 435.565
BEESAT 23 May 01:49:14 01:53:38 39° 68° (ENE) 01:58:04 436.000
TIGRISAT 23 May 01:56:33 01:59:26 17° 299° (WNW) 02:02:10 435.000
SWISSCUBE 23 May 01:56:46 02:01:20 49° 70° (ENE) 02:05:56 437.505
Oscar 19 23 May 02:05:38 02:08:57 17° 88° (E) 02:12:25 437.125/150
NANOSAT C BR1 23 May 02:09:32 02:12:52 22° 296° (WNW) 02:16:07 145.865
QB50P2 23 May 02:14:14 02:17:22 20° 297° (WNW) 02:20:24 145.880/145.840
UNISAT 6 23 May 02:16:04 02:17:36 11° 303° (WNW) 02:18:57 437.425
SPROUT 23 May 02:19:19 02:22:10 17° 271° (W) 02:24:53 437.525
POPSAT HIP 1 23 May 02:28:09 02:30:45 15° 299° (WNW) 02:33:13 437.405
DUCHIFAT 1 23 May 02:34:12 02:36:29 14° 300° (WNW) 02:38:36 145.980
CUSAT 1 23 May 02:42:00 02:48:52 34° 274° (W) 02:54:33 437.405
O/OREOS (USA 219) 23 May 02:44:39 02:49:00 48° 59° (ENE) 02:53:20 437.305
STARS 23 May 02:47:33 02:50:40 20° 62° (ENE) 02:53:55 437.465
BEESAT 2 23 May 02:53:23 02:55:34 14° 28° (NNE) 02:57:49 435.950
PCSat 23 May 03:00:59 03:06:17 59° 118° (ESE) 03:11:38 145.827
GONETS M04 23 May 03:01:36 03:09:48 44° 272° (W) 03:17:50
KKS-1 23 May 03:07:08 03:11:22 43° 70° (ENE) 03:15:39 437.445
ITUPSAT 1 23 May 03:16:28 03:20:49 34° 264° (W) 03:25:09 437.325
ISS 23 May 03:17:46 03:21:02 86° 154° (SSE) 03:24:19 145.825
DANDE 23 May 03:22:28 03:28:55 25° 279° (W) 03:34:25 436.750
BEESAT 23 May 03:27:32 03:31:36 27° 266° (W) 03:35:37 436.000
SWISSCUBE 23 May 03:35:48 03:39:29 22° 269° (W) 03:43:06 437.505
Cosmos 2499 23 May 03:40:19 03:47:28 78° 79° (ENE) 03:54:34 435.465 / 435.565
Oscar 19 23 May 03:43:44 03:48:54 69° 288° (WNW) 03:54:01 437.125/150
ITAMSAT 1 23 May 03:47:42 03:52:40 43° 98° (E) 03:57:38 435.822/435.867
BEESAT 3 23 May 03:47:58 03:51:41 32° 42° (NE) 03:55:23 437.485
AIST 2 23 May 03:51:49 03:54:26 16° 29° (NNE) 03:57:07 435.215
Gurwin Techsat 1B 23 May 03:58:54 04:04:04 51° 99° (E) 04:09:15 435.225
MOZHAYETS 4 23 May 04:05:08 04:07:57 17° 61° (ENE) 04:10:55
STARS 23 May 04:22:26 04:26:47 53° 260° (W) 04:31:11 437.465
O/OREOS (USA 219) 23 May 04:24:47 04:28:06 20° 257° (WSW) 04:31:19 437.305
JAS-2 23 May 04:24:48 04:27:54 16° 87° (E) 04:31:12 435.910
BEESAT 2 23 May 04:30:25 04:34:31 61° 49° (NE) 04:38:33 435.950
KKS-1 23 May 04:44:40 04:48:13 22° 268° (W) 04:51:43 437.445
PCSat 23 May 04:45:20 04:50:04 30° 319° (NW) 04:54:49 145.827
VERMONT LUNAR 23 May 04:51:01 04:52:12 12° 158° (SSE) 04:53:27 437.305
ISS 23 May 04:54:35 04:57:40 38° 353° (N) 05:00:46 145.825
SO-50 23 May 05:15:24 05:19:51 44° 120° (ESE) 05:24:29 436.795
AO-7 23 May 05:20:25 05:28:19 45° 98° (E) 05:36:16 29.400- 29.500
HORYU 2 23 May 05:23:18 05:27:43 59° 101° (E) 05:32:05 437.375
Oscar 19 23 May 05:25:23 05:27:25 12° 306° (NW) 05:29:13 437.125/150
BEESAT 3 23 May 05:25:57 05:29:41 34° 242° (WSW) 05:33:19 437.485
ITAMSAT 1 23 May 05:27:31 05:32:03 30° 296° (WNW) 05:36:30 435.822/435.867
AIST 2 23 May 05:29:32 05:33:48 72° 51° (NE) 05:37:58 435.215
CUBESAT XI-V 23 May 05:32:40 05:34:19 12° 58° (ENE) 05:36:09 437.345
Cosmos 2499 23 May 05:34:49 05:39:50 20° 279° (W) 05:44:34 435.465 / 435.565
Gurwin Techsat 1B 23 May 05:39:24 05:43:49 26° 297° (WNW) 05:48:07 435.225
MOZHAYETS 4 23 May 05:40:10 05:44:44 67° 259° (WSW) 05:49:19
PHONESAT 2.4 23 May 06:03:25 06:05:07 13° 157° (SSE) 06:06:53 2401.200-2431.200
JAS-2 23 May 06:08:33 06:13:47 68° 288° (WNW) 06:18:57 435.910
BEESAT 2 23 May 06:09:30 06:12:12 17° 247° (WSW) 06:14:46 435.950
M-CUBED/EXP-1 PRIME 23 May 06:11:01 06:12:44 13° 56° (NE) 06:14:33 437.505
AUBIESAT-1 23 May 06:22:59 06:25:07 14° 57° (ENE) 06:27:18 437.475
VERMONT LUNAR 23 May 06:26:11 06:28:47 23° 173° (S) 06:31:24 437.305
ISS 23 May 06:31:20 06:34:31 45° 13° (NNE) 06:37:41 145.825
PCSat 23 May 06:33:50 06:35:23 11° 344° (NNW) 06:36:51 145.827
STRAND 1 23 May 06:39:45 06:43:50 26° 63° (ENE) 06:48:03 437.568
Cosmos 2491 23 May 06:48:12 06:56:05 35° 65° (ENE) 07:04:03 435.465 / 435.565
SO-50 23 May 06:56:08 07:00:32 35° 320° (NW) 07:05:01 436.795
HORYU 2 23 May 07:00:57 07:03:59 18° 299° (WNW) 07:06:52 437.375
CUBESAT XI-V 23 May 07:06:28 07:11:04 83° 77° (ENE) 07:15:43 437.345
CUTE-I 23 May 07:07:40 07:11:48 23° 91° (E) 07:16:03 437.470
AIST 2 23 May 07:09:25 07:11:53 15° 248° (WSW) 07:14:09 435.215
PRISM 23 May 07:10:31 07:14:25 46° 71° (ENE) 07:18:23 437.425
AO-7 23 May 07:13:18 07:21:18 51° 299° (WNW) 07:29:13 29.400- 29.500
Cubesat XI-IV 23 May 07:26:30 07:31:18 33° 95° (E) 07:36:08 437.490
PHONESAT 2.4 23 May 07:39:41 07:42:36 25° 174° (S) 07:45:31 2401.200-2431.200
M-CUBED/EXP-1 PRIME 23 May 07:42:49 07:47:10 86° 250° (WSW) 07:51:11 437.505
YUBILEINY 23 May 07:46:45 07:53:40 28° 82° (E) 08:00:49 435.215
AUBIESAT-1 23 May 07:55:16 07:59:33 73° 252° (WSW) 08:03:30 437.475
JAS-2 23 May 07:56:27 07:58:01 11° 308° (NW) 07:59:19 435.910
VERMONT LUNAR 23 May 08:02:58 08:05:28 21° 190° (S) 08:07:59 437.305
ISS 23 May 08:07:48 08:10:59 49° 212° (SSW) 08:14:09 145.825
STRAND 1 23 May 08:17:53 08:22:49 49° 261° (W) 08:27:47 437.568
HO-68 23 May 08:38:58 08:40:10 11° 80° (E) 08:41:57 435.675
AIST 1 23 May 08:39:15 08:43:18 37° 74° (ENE) 08:47:23
SO-50 23 May 08:40:16 08:42:33 13° 343° (NNW) 08:44:47 436.795
Cosmos 2491 23 May 08:44:53 08:53:34 61° 268° (W) 09:02:08 435.465 / 435.565
CUTE-I 23 May 08:47:02 08:52:17 56° 290° (WNW) 08:57:31 437.470
PRISM 23 May 08:47:19 08:50:11 18° 269° (W) 08:52:55 437.425
CUBESAT XI-V 23 May 08:47:22 08:49:15 12° 275° (W) 08:50:53 437.345
Cubesat XI-IV 23 May 09:06:30 09:11:30 40° 293° (WNW) 09:16:26 437.490
AO-7 23 May 09:07:49 09:12:18 15° 322° (NW) 09:16:28 29.400- 29.500
BRITE-PL 23 May 09:10:51 09:16:03 35° 93° (E) 09:21:10 437.365/2234.400
PHONESAT 2.4 23 May 09:17:23 09:20:12 23° 190° (S) 09:23:01 2401.200-2431.200
DOVE 4 23 May 09:20:01 09:23:29 18° 87° (E) 09:27:02 437.250
CINEMA 3 23 May 09:31:40 09:32:16 10° 82° (E) 09:33:11 145.822/145.860
AAUSAT CUBESAT 2 23 May 09:35:20 09:36:21 11° 86° (E) 09:37:35 437.432
GOMX 1 23 May 09:35:22 09:40:25 37° 94° (E) 09:45:19 467.674
YUBILEINY 23 May 09:41:03 09:49:49 72° 282° (WNW) 09:58:36 435.215
TIGRISAT 23 May 09:46:49 09:48:33 12° 58° (ENE) 09:50:29 435.000
Cosmos 2504 23 May 09:50:21 09:54:49 17° 78° (ENE) 09:59:33 435.465 / 435.565
RS-15 23 May 09:56:32 10:06:02 39° 109° (ESE) 10:15:59 29.354- 29.394
CANX-2 23 May 09:59:10 10:03:05 37° 96° (E) 10:07:01 2200.000
PCSat 23 May 10:02:54 10:07:04 22° 35° (NE) 10:11:19 145.827
CUTE 1.7 + AOD 2 23 May 10:03:23 10:07:19 37° 97° (E) 10:11:14 437.475
UNISAT 6 23 May 10:03:52 10:06:54 18° 62° (ENE) 10:10:03 437.425
AIST 1 23 May 10:17:18 10:20:47 23° 271° (W) 10:24:11
DUCHIFAT 1 23 May 10:20:08 10:21:05 11° 58° (ENE) 10:22:14 145.980
HO-68 23 May 10:22:34 10:29:40 60° 102° (ESE) 10:36:43 435.675
SO-50 23 May 10:24:01 10:25:14 11° 8° (N) 10:26:29 436.795
DELFI C3 23 May 10:29:57 10:32:06 14° 89° (E) 10:34:25 145.870
CUTE-I 23 May 10:30:25 10:31:22 10° 308° (NW) 10:32:03 437.470
FUNcube-1 23 May 10:31:55 10:33:44 13° 86° (E) 10:35:44 145.935
SEEDS 23 May 10:32:33 10:36:44 63° 101° (E) 10:40:52 437.485
Cosmos 2491 23 May 10:45:01 10:48:43 13° 288° (WNW) 10:51:47 435.465 / 435.565
ANTELSAT 23 May 10:45:28 10:49:50 40° 69° (ENE) 10:54:12 437.575/2403.000
CUBEBUG 2 23 May 10:48:59 10:52:58 30° 93° (E) 10:56:53 437.445
BRITE-PL 23 May 10:49:16 10:54:36 41° 292° (WNW) 10:59:47 437.365/2234.400
COMPASS 1 23 May 10:52:37 10:56:48 84° 103° (ESE) 11:00:57 437.405
POLYITAN 1 23 May 10:55:58 10:59:25 24° 65° (ENE) 11:02:58 437.675
QB50P1 23 May 10:56:23 10:59:47 24° 65° (ENE) 11:03:17 145.935-145.965
DOVE 4 23 May 10:56:35 11:01:50 67° 287° (WNW) 11:06:49 437.250
PHONESAT 2.4 23 May 10:57:01 10:57:37 10° 206° (SSW) 10:58:09 2401.200-2431.200
BUGSAT 1 23 May 11:00:09 11:02:58 18° 63° (ENE) 11:05:55 437.445
CINEMA 3 23 May 11:05:32 11:10:27 82° 103° (ESE) 11:15:07 145.822/145.860
AAUSAT CUBESAT 2 23 May 11:08:26 11:12:35 77° 285° (WNW) 11:16:42 437.432
ZACube-1 23 May 11:09:07 11:13:01 30° 94° (E) 11:16:50 437.345
GOMX 1 23 May 11:13:30 11:18:30 36° 293° (WNW) 11:23:18 467.674
TIGRISAT 23 May 11:19:54 11:24:37 81° 75° (ENE) 11:29:18 435.000
UKube-1 23 May 11:20:19 11:23:19 18° 91° (E) 11:26:27 .
VELOX 1 23 May 11:22:16 11:23:17 11° 85° (E) 11:24:35 145.980
DX 1 23 May 11:22:37 11:25:56 21° 92° (E) 11:29:20 434.975-435.025
NANOSAT C BR1 23 May 11:28:30 11:32:36 48° 71° (ENE) 11:36:46 145.865
Oscar 11 23 May 11:31:02 11:35:23 86° 103° (ESE) 11:39:41 145.826/435.025
QB50P2 23 May 11:33:17 11:37:28 55° 72° (ENE) 11:41:42 145.880/145.840
CANX-2 23 May 11:35:27 11:38:52 24° 294° (WNW) 11:42:12 2200.000
HUMSAT D 23 May 11:37:31 11:41:08 28° 94° (E) 11:44:45 437.325/437.525
UNISAT 6 23 May 11:38:33 11:43:15 66° 259° (W) 11:47:55 437.425
Cosmos 2504 23 May 11:38:47 11:47:10 77° 97° (E) 11:55:02 435.465 / 435.565
CUTE 1.7 + AOD 2 23 May 11:39:40 11:43:05 24° 294° (WNW) 11:46:24 437.475
YUBILEINY 23 May 11:42:47 11:48:39 18° 308° (NW) 11:54:08 435.215
UWE-3 23 May 11:44:56 11:49:27 87° 103° (ESE) 11:53:48 435.000/436.395/437.385
PCSat 23 May 11:45:48 11:51:16 89° 238° (WSW) 11:56:42 145.827
POPSAT HIP 1 23 May 11:46:32 11:50:48 74° 75° (ENE) 11:55:08 437.405
AISAT 23 May 11:50:24 11:53:54 22° 92° (E) 11:57:26 437.250
DUCHIFAT 1 23 May 11:51:57 11:56:13 82° 78° (ENE) 12:00:32 145.980
50 SAT 23 May 11:56:41 11:59:54 24° 93° (E) 12:03:09 437.505
DELFI C3 23 May 12:03:40 12:07:37 55° 287° (WNW) 12:11:32 145.870
SO-50 23 May 12:03:43 12:07:36 22° 32° (NNE) 12:11:32 436.795
FUNcube-1 23 May 12:06:17 12:10:42 73° 286° (WNW) 12:14:58 145.935
RS-15 23 May 12:06:49 12:17:45 72° 313° (NW) 12:29:05 29.354- 29.394
SEEDS 23 May 12:09:36 12:12:05 15° 298° (WNW) 12:14:26 437.485
HO-68 23 May 12:10:49 12:17:05 33° 302° (WNW) 12:23:14 435.675
ANTELSAT 23 May 12:22:45 12:26:44 26° 267° (W) 12:30:39 437.575/2403.000
CUBEBUG 2 23 May 12:25:36 12:29:41 32° 293° (WNW) 12:33:36 437.445
COMPASS 1 23 May 12:30:19 12:31:54 12° 300° (WNW) 12:33:19 437.405
POLYITAN 1 23 May 12:31:07 12:35:10 38° 263° (W) 12:39:13 437.675
CUSAT 1 23 May 12:31:18 12:32:31 11° 72° (ENE) 12:34:21 437.405
QB50P1 23 May 12:31:29 12:35:29 38° 263° (W) 12:39:31 145.935-145.965
BUGSAT 1 23 May 12:34:05 12:38:06 50° 260° (W) 12:42:13 437.445
DOVE 4 23 May 12:36:40 12:38:38 12° 305° (NW) 12:40:20 437.250
ESTCUBE 1 23 May 12:42:45 12:47:04 42° 98° (E) 12:51:24 437.505/2401.250
CINEMA 3 23 May 12:44:09 12:47:00 15° 301° (WNW) 12:49:37 145.822/145.860
ZACube-1 23 May 12:45:28 12:49:21 30° 293° (WNW) 12:53:05 437.345
UKube-1 23 May 12:55:33 12:59:47 49° 290° (WNW) 13:03:59 .
VELOX 1 23 May 12:56:04 13:00:36 88° 287° (WNW) 13:05:05 145.980
DX 1 23 May 12:58:13 13:02:25 44° 290° (WNW) 13:06:35 434.975-435.025
TIGRISAT 23 May 12:59:44 13:02:01 13° 274° (W) 13:04:03 435.000
NANOSAT C BR1 23 May 13:05:40 13:08:45 18° 270° (W) 13:11:43 145.865
TISAT 1 23 May 13:05:51 13:08:10 15° 88° (E) 13:10:39 437.305
CUBEBUG 1 23 May 13:06:12 13:10:38 65° 101° (E) 13:15:03 437.445
Oscar 11 23 May 13:09:08 13:10:58 12° 301° (WNW) 13:12:38 145.826/435.025
QB50P2 23 May 13:10:59 13:13:46 16° 271° (W) 13:16:24 145.880/145.840
DANDE 23 May 13:11:05 13:15:20 17° 76° (ENE) 13:20:22 436.750
HUMSAT D 23 May 13:13:11 13:16:54 30° 292° (WNW) 13:20:31 437.325/437.525
UWE-3 23 May 13:23:17 13:25:20 13° 301° (WNW) 13:27:11 435.000/436.395/437.385
Oscar 19 23 May 13:25:03 13:29:41 35° 66° (ENE) 13:34:25 437.125/150
POPSAT HIP 1 23 May 13:25:25 13:27:17 12° 273° (W) 13:28:58 437.405
AISAT 23 May 13:26:24 13:30:42 44° 290° (WNW) 13:34:57 437.250
PCSat 23 May 13:30:56 13:34:00 15° 255° (WSW) 13:36:50 145.827
50 SAT 23 May 13:31:12 13:34:39 29° 292° (WNW) 13:38:02 437.505
DUCHIFAT 1 23 May 13:31:29 13:32:43 11° 274° (W) 13:33:42 145.980
ITAMSAT 1 23 May 13:32:22 13:35:07 15° 56° (ENE) 13:38:04 435.822/435.867
Cosmos 2504 23 May 13:34:40 13:41:27 26° 298° (WNW) 13:47:42 435.465 / 435.565
SO-50 23 May 13:43:49 13:48:50 89° 230° (SW) 13:53:45 436.795
Gurwin Techsat 1B 23 May 13:45:37 13:49:02 18° 58° (ENE) 13:52:38 435.225
SPROUT 23 May 14:00:52 14:05:14 71° 102° (ESE) 14:09:34 437.525
CUSAT 1 23 May 14:06:32 14:13:22 51° 92° (E) 14:21:19 437.405
GONETS M04 23 May 14:09:18 14:17:35 49° 89° (E) 14:26:00
ESTCUBE 1 23 May 14:20:05 14:23:45 24° 295° (WNW) 14:27:18 437.505/2401.250
RS-15 23 May 14:22:31 14:32:28 35° 344° (NNW) 14:42:44 29.354- 29.394
AO-7 23 May 14:33:22 14:39:10 22° 46° (NE) 14:45:13 29.400- 29.500
Cosmos 2499 23 May 14:34:02 14:35:42 11° 75° (ENE) 14:37:54 435.465 / 435.565
VELOX 1 23 May 14:34:35 14:36:31 12° 302° (WNW) 14:38:17 145.980
TISAT 1 23 May 14:40:10 14:44:25 62° 287° (WNW) 14:48:38 437.305
JAS-2 23 May 14:41:33 14:44:51 15° 56° (NE) 14:48:14 435.910
CUBEBUG 1 23 May 14:43:41 14:46:34 17° 299° (WNW) 14:49:17 437.445
DANDE 23 May 14:50:14 14:57:07 76° 98° (E) 15:05:32 436.750
HORYU 2 23 May 14:51:29 14:52:52 11° 57° (ENE) 14:54:27 437.375
Oscar 19 23 May 15:04:17 15:09:03 35° 264° (W) 15:13:49 437.125/150
ITAMSAT 1 23 May 15:08:46 15:13:57 87° 70° (ENE) 15:19:11 435.822/435.867
ITUPSAT 1 23 May 15:13:19 15:17:56 47° 99° (E) 15:22:34 437.325
Gurwin Techsat 1B 23 May 15:23:10 15:28:28 79° 256° (WSW) 15:33:50 435.225
BEESAT 23 May 15:23:34 15:28:19 61° 102° (ESE) 15:33:02 436.000
SO-50 23 May 15:26:02 15:28:44 14° 250° (WSW) 15:31:12 436.795
SWISSCUBE 23 May 15:31:23 15:36:12 78° 103° (ESE) 15:40:59 437.505
SPROUT 23 May 15:38:20 15:40:50 15° 299° (WNW) 15:43:10 437.525
CUSAT 1 23 May 15:49:24 15:56:20 42° 295° (WNW) 16:04:05 437.405
GONETS M04 23 May 16:06:14 16:14:38 44° 291° (WNW) 16:22:58
STARS 23 May 16:09:33 16:13:00 22° 92° (E) 16:16:33 437.465
Cosmos 2499 23 May 16:19:33 16:27:32 59° 93° (E) 16:34:59 435.465 / 435.565
JAS-2 23 May 16:22:29 16:29:16 73° 73° (ENE) 16:35:16 435.910
AO-7 23 May 16:22:33 16:30:49 76° 68° (ENE) 16:39:09 29.400- 29.500
HORYU 2 23 May 16:24:20 16:28:50 81° 75° (ENE) 16:33:20 437.375
KKS-1 23 May 16:31:22 16:35:49 57° 100° (E) 16:40:14 437.445
DANDE 23 May 16:35:08 16:41:26 29° 302° (WNW) 16:48:24 436.750
RS-15 23 May 16:38:38 16:48:47 36° 17° (NNE) 16:59:26 29.354- 29.394
ITAMSAT 1 23 May 16:51:36 16:54:16 14° 274° (W) 16:56:41 435.822/435.867
ITUPSAT 1 23 May 16:51:45 16:55:36 24° 297° (WNW) 16:59:20 437.325
O/OREOS (USA 219) 23 May 17:00:21 17:04:16 30° 106° (ESE) 17:08:15 437.305
BEESAT 23 May 17:02:20 17:05:46 20° 299° (WNW) 17:09:05 436.000
Gurwin Techsat 1B 23 May 17:07:42 17:09:28 11° 277° (W) 17:10:55 435.225
SWISSCUBE 23 May 17:10:35 17:13:31 16° 301° (WNW) 17:16:17 437.505
Cubesat XI-IV 23 May 17:15:24 17:17:35 13° 54° (NE) 17:19:59 437.490
MOZHAYETS 4 23 May 17:32:39 17:36:16 23° 92° (E) 17:39:57
CUSAT 1 23 May 17:38:57 17:41:45 12° 319° (NW) 17:44:10 437.405
STARS 23 May 17:45:27 17:49:40 42° 291° (WNW) 17:53:49 437.465
YUBILEINY 23 May 17:51:57 17:57:05 17° 51° (NE) 18:02:37 435.215
HORYU 2 23 May 18:04:18 18:06:09 12° 274° (W) 18:07:45 437.375
KKS-1 23 May 18:08:54 18:12:05 19° 298° (WNW) 18:15:08 437.445
JAS-2 23 May 18:09:46 18:14:53 22° 270° (W) 18:19:25 435.910
GONETS M04 23 May 18:12:40 18:14:41 11° 319° (NW) 18:16:10
Cosmos 2499 23 May 18:13:57 18:21:09 33° 294° (WNW) 18:27:47 435.465 / 435.565
AO-7 23 May 18:17:37 18:24:31 27° 269° (W) 18:31:13 29.400- 29.500
CUTE-I 23 May 18:32:23 18:37:28 49° 69° (ENE) 18:42:37 437.470
O/OREOS (USA 219) 23 May 18:39:31 18:43:39 34° 305° (NW) 18:47:46 437.305
Cubesat XI-IV 23 May 18:51:35 18:56:51 71° 72° (ENE) 19:02:11 437.490
RS-15 23 May 18:52:00 19:03:32 73° 47° (NE) 19:15:36 29.354- 29.394
CUBESAT XI-V 23 May 19:01:01 19:04:01 17° 88° (E) 19:07:11 437.345
MOZHAYETS 4 23 May 19:09:23 19:13:42 42° 290° (WNW) 19:17:59
HO-68 23 May 19:10:45 19:14:34 16° 47° (NE) 19:18:39 435.675
BEESAT 3 23 May 19:22:07 19:25:01 19° 114° (ESE) 19:28:03 437.485
